Weather in Sharlik

Russia / Orenburg Oblast     52°55′33″N   54°44′28″E
temp.,
°C
wind,
m/s
gust,
m/s
humid.,
%
clouds,
%
prec.,
mm/h
press.,
hPa
HPBL,
m
21 january, fri
fri2123:00−22e21998 0.0 10259
02:00−22ese11998 0.0 10259
05:00−19e119893 0.0 102511
08:00−16ese2297100 0.1 102523
11:00−14ese119798 0.2 102515
14:00−10sse3593100 0.1 1024220
17:00−10se349588 0.3 1025117
20:00−12se229796 0.1 102523
22 january, sat
sat2223:00−13se329788 0.2 102636
02:00−14ese229881 0.1 102619
05:00−15se229798 0.3 102729
08:00−15se3397100 0.1 102758
11:00−14se369395 0.1 1029162
14:00−12se388976 0.0 1029200
17:00−15ese229094 0.0 10309
20:00−17ese229098 0.0 103110
23 january, sun
sun2323:00−18ese2290100 0.0 10329
02:00−17ese2287100 0.0 103213
05:00−16se2285100 0.0 103310
08:00−16se1187100 0.0 103410
11:00−15ese2288100 0.0 103518
14:00−11se2481100 0.0 1035111
17:00−13ese118596 0.0 10369
20:00−16e2284100 0.0 10379
24 january, mon
mon2423:00−17ene2287100 0.0 10389
02:00−17e118978 0.0 10399
05:00−18e119197 0.0 10409
08:00−17ene2290100 0.0 10409
11:00−16e2188100 0.0 104110
14:00−11ese127993 0.0 104063
17:00−14ese1183100 0.0 104010
20:00−15e1183100 0.0 10419
25 january, tue
tue2523:00−15ne2282100 0.0 10409
02:00−15ese1178100 0.0 10399
05:00−17ne1182100 0.0 10399
08:00−17se1183100 0.0 10389
11:00−15e1185100 0.0 103710
14:00−11sse127783 0.0 103651
17:00−15sse11835 0.0 10359
20:00−19ese11875 0.0 10359